AAL236 TBPB-MDPC

Flight info

Callsign AAL236
Flight time 1h 43m
Altitude 36000
Route ILURI DCT MAZ B892 ANTEX ANTEX2B
Aircraft B738/M-SDE2E3FGHIRWXY/LB1

Departure

Time 2026-05-04 23:51
Airport Grantley Adams International Airport (TBPB)

Arrival

Time 2026-05-05 01:35
Airport Punta Cana International Airport (MDPC)
Time Latitude Longitude Altitude Speed Heading
2026-05-04 23:37 13.07920 -59.48624 168 ft 0 kts 351°
2026-05-04 23:43 13.07898 -59.48620 168 ft 4 kts 348°
2026-05-04 23:43 13.07872 -59.48613 168 ft 4 kts 345°
2026-05-04 23:44 13.07845 -59.48606 168 ft 4 kts 346°
2026-05-04 23:44 13.07824 -59.48599 168 ft 4 kts 317°
2026-05-04 23:44 13.07815 -59.48579 168 ft 4 kts 260°
2026-05-04 23:44 13.07819 -59.48563 168 ft 1 kts 255°
2026-05-04 23:45 13.07819 -59.48562 168 ft 0 kts 255°
2026-05-04 23:47 13.07816 -59.48573 168 ft 7 kts 255°
2026-05-04 23:47 13.07791 -59.48671 168 ft 21 kts 254°
2026-05-04 23:47 13.07720 -59.48845 169 ft 32 kts 255°
2026-05-04 23:47 13.07659 -59.49086 169 ft 37 kts 256°
2026-05-04 23:48 13.07591 -59.49358 170 ft 37 kts 256°
2026-05-04 23:48 13.07534 -59.49592 170 ft 36 kts 255°
2026-05-04 23:48 13.07487 -59.49786 171 ft 28 kts 257°
2026-05-04 23:48 13.07437 -59.50001 171 ft 34 kts 255°
2026-05-04 23:49 13.07374 -59.50249 172 ft 31 kts 256°
2026-05-04 23:49 13.07316 -59.50479 173 ft 35 kts 255°
2026-05-04 23:49 13.07278 -59.50637 173 ft 21 kts 258°
2026-05-04 23:49 13.07234 -59.50732 173 ft 5 kts 185°
2026-05-04 23:50 13.07227 -59.50732 173 ft 0 kts 175°
2026-05-04 23:50 13.07181 -59.50724 173 ft 15 kts 167°
2026-05-04 23:50 13.07106 -59.50676 173 ft 8 kts 92°
2026-05-04 23:50 13.07118 -59.50618 173 ft 8 kts 75°
2026-05-04 23:51 13.07172 -59.50392 174 ft 67 kts 77°
2026-05-04 23:51 13.07339 -59.49709 170 ft 128 kts 76°
2026-05-04 23:51 13.07612 -59.48696 399 ft 154 kts 76°
2026-05-04 23:51 13.07899 -59.47687 1152 ft 145 kts 66°
2026-05-04 23:52 13.08498 -59.46777 1561 ft 168 kts 48°
2026-05-04 23:52 13.09486 -59.46024 2068 ft 181 kts 32°
2026-05-04 23:52 13.10609 -59.45606 3064 ft 164 kts 16°
2026-05-04 23:52 13.11770 -59.45634 3592 ft 185 kts 340°
2026-05-04 23:53 13.12748 -59.46628 3855 ft 218 kts 297°
2026-05-04 23:53 13.13358 -59.48137 4058 ft 241 kts 292°
2026-05-04 23:53 13.13985 -59.49808 4297 ft 259 kts 291°
2026-05-04 23:53 13.14671 -59.51557 4689 ft 273 kts 294°
2026-05-04 23:54 13.15527 -59.53374 5101 ft 289 kts 298°
2026-05-04 23:54 13.16537 -59.55171 5774 ft 293 kts 303°
2026-05-04 23:54 13.17673 -59.56925 6465 ft 297 kts 306°
2026-05-04 23:54 13.18909 -59.58640 7139 ft 300 kts 309°
2026-05-04 23:55 13.20223 -59.60324 7856 ft 303 kts 310°
2026-05-04 23:55 13.21590 -59.61982 8584 ft 306 kts 312°
2026-05-04 23:55 13.24445 -59.65263 10108 ft 310 kts 315°
2026-05-04 23:56 13.25937 -59.66923 10505 ft 327 kts 315°
2026-05-04 23:56 13.27550 -59.68691 10671 ft 350 kts 315°
2026-05-04 23:56 13.29249 -59.70539 11065 ft 361 kts 315°
2026-05-04 23:56 13.30993 -59.72429 11664 ft 366 kts 315°
2026-05-04 23:57 13.32751 -59.74328 12345 ft 368 kts 315°
2026-05-04 23:57 13.34528 -59.76242 13023 ft 371 kts 316°
2026-05-04 23:57 13.36317 -59.78167 13691 ft 375 kts 316°
2026-05-04 23:57 13.38129 -59.80114 14305 ft 378 kts 316°
2026-05-04 23:58 13.39945 -59.82066 14980 ft 379 kts 316°
2026-05-04 23:58 13.41766 -59.84023 15703 ft 379 kts 315°
2026-05-04 23:58 13.43592 -59.85984 16384 ft 380 kts 315°
2026-05-04 23:58 13.45423 -59.87952 17049 ft 382 kts 315°
2026-05-04 23:59 13.47266 -59.89932 17694 ft 385 kts 316°
2026-05-04 23:59 13.49119 -59.91924 18331 ft 387 kts 316°
2026-05-04 23:59 13.50985 -59.93930 18862 ft 390 kts 316°
2026-05-04 23:59 13.52869 -59.95955 19361 ft 394 kts 316°
2026-05-05 00:00 13.54771 -59.98001 19841 ft 398 kts 315°
2026-05-05 00:00 13.55393 -59.98669 20003 ft 399 kts 316°
2026-05-05 00:00 13.58628 -60.02150 20813 ft 405 kts 315°
2026-05-05 00:00 13.60581 -60.04253 21281 ft 409 kts 315°
2026-05-05 00:01 13.62552 -60.06375 21756 ft 412 kts 315°
2026-05-05 00:01 13.64540 -60.08517 22204 ft 416 kts 315°
2026-05-05 00:01 13.66550 -60.10682 22608 ft 421 kts 315°
2026-05-05 00:01 13.68576 -60.12865 23035 ft 424 kts 315°
2026-05-05 00:02 13.70621 -60.15069 23477 ft 428 kts 315°
2026-05-05 00:02 13.72684 -60.17293 23853 ft 430 kts 315°
2026-05-05 00:02 13.74751 -60.19523 24243 ft 432 kts 315°
2026-05-05 00:02 13.76828 -60.21764 24670 ft 432 kts 315°
2026-05-05 00:03 13.78902 -60.24003 25097 ft 433 kts 315°
2026-05-05 00:03 13.80981 -60.26247 25497 ft 434 kts 315°
2026-05-05 00:03 13.83067 -60.28500 25885 ft 435 kts 315°
2026-05-05 00:03 13.85161 -60.30761 26264 ft 437 kts 315°
2026-05-05 00:04 13.87259 -60.33028 26646 ft 438 kts 315°
2026-05-05 00:04 13.89365 -60.35303 27028 ft 439 kts 315°
2026-05-05 00:04 13.91473 -60.37581 27387 ft 441 kts 315°
2026-05-05 00:04 13.93589 -60.39869 27740 ft 442 kts 315°
2026-05-05 00:05 13.95717 -60.42171 28081 ft 444 kts 315°
2026-05-05 00:05 13.97846 -60.44474 28436 ft 445 kts 315°
2026-05-05 00:05 13.99983 -60.46786 28777 ft 446 kts 315°
2026-05-05 00:05 14.02125 -60.49105 29101 ft 448 kts 315°
2026-05-05 00:06 14.04280 -60.51438 29398 ft 450 kts 315°
2026-05-05 00:06 14.06440 -60.53778 29710 ft 452 kts 315°
2026-05-05 00:06 14.08611 -60.56129 30039 ft 453 kts 315°
2026-05-05 00:06 14.10780 -60.58480 30315 ft 454 kts 315°
2026-05-05 00:07 14.12958 -60.60841 30561 ft 455 kts 315°
2026-05-05 00:07 14.15143 -60.63210 30788 ft 457 kts 315°
2026-05-05 00:07 14.17334 -60.65587 31050 ft 457 kts 315°
2026-05-05 00:07 14.19524 -60.67963 31404 ft 456 kts 315°
2026-05-05 00:08 14.21699 -60.70324 31784 ft 454 kts 315°
2026-05-05 00:08 14.23868 -60.72679 32134 ft 452 kts 315°
2026-05-05 00:08 14.26034 -60.75032 32451 ft 452 kts 315°
2026-05-05 00:08 14.28199 -60.77383 32793 ft 451 kts 315°
2026-05-05 00:09 14.30352 -60.79723 33157 ft 449 kts 315°
2026-05-05 00:09 14.32498 -60.82056 33498 ft 448 kts 315°
2026-05-05 00:09 14.34645 -60.84390 33818 ft 448 kts 315°
2026-05-05 00:09 14.36784 -60.86716 34126 ft 447 kts 315°
2026-05-05 00:10 14.38922 -60.89041 34431 ft 446 kts 315°
2026-05-05 00:10 14.41057 -60.91365 34725 ft 445 kts 315°
2026-05-05 00:10 14.43191 -60.93688 34983 ft 445 kts 315°
2026-05-05 00:10 14.45323 -60.96010 35248 ft 445 kts 315°
2026-05-05 00:11 14.47449 -60.98325 35522 ft 445 kts 315°
2026-05-05 00:11 14.49576 -61.00642 35787 ft 445 kts 315°
2026-05-05 00:11 14.51704 -61.02961 36037 ft 445 kts 315°
2026-05-05 00:12 14.55990 -61.07634 36047 ft 450 kts 315°
2026-05-05 00:12 14.60273 -61.12307 36034 ft 444 kts 315°
2026-05-05 00:13 14.64471 -61.16891 36047 ft 442 kts 315°
2026-05-05 00:13 14.67122 -61.19786 36050 ft 441 kts 315°
2026-05-05 00:14 14.70965 -61.23985 36045 ft 441 kts 315°
2026-05-05 00:15 14.75184 -61.28597 36045 ft 441 kts 315°
2026-05-05 00:15 14.79402 -61.33212 36041 ft 442 kts 315°
2026-05-05 00:16 14.83618 -61.37826 36050 ft 442 kts 315°
2026-05-05 00:16 14.87840 -61.42451 36052 ft 442 kts 315°
2026-05-05 00:17 14.92066 -61.47082 36047 ft 443 kts 315°
2026-05-05 00:17 14.96288 -61.51712 36058 ft 443 kts 315°
2026-05-05 00:18 15.00517 -61.56352 36056 ft 443 kts 315°
2026-05-05 00:18 15.04748 -61.60999 36054 ft 443 kts 315°
2026-05-05 00:19 15.08978 -61.65646 36057 ft 444 kts 315°
2026-05-05 00:19 15.13209 -61.70297 36060 ft 444 kts 315°
2026-05-05 00:20 15.16753 -61.74195 36053 ft 444 kts 315°
2026-05-05 00:20 15.20979 -61.78847 36054 ft 443 kts 315°
2026-05-05 00:21 15.25197 -61.83492 36051 ft 443 kts 315°
2026-05-05 00:21 15.29412 -61.88137 36057 ft 442 kts 315°
2026-05-05 00:22 15.33621 -61.92779 36053 ft 442 kts 315°
2026-05-05 00:22 15.37826 -61.97419 36058 ft 441 kts 315°
2026-05-05 00:23 15.42027 -62.02057 36058 ft 441 kts 315°
2026-05-05 00:23 15.46223 -62.06693 36060 ft 441 kts 315°
2026-05-05 00:24 15.50415 -62.11327 36057 ft 440 kts 315°
2026-05-05 00:24 15.54577 -62.15931 36057 ft 440 kts 315°
2026-05-05 00:25 15.58791 -62.20596 36064 ft 440 kts 315°
2026-05-05 00:25 15.62974 -62.25229 36058 ft 440 kts 315°
2026-05-05 00:26 15.67156 -62.29863 36059 ft 440 kts 315°
2026-05-05 00:26 15.71300 -62.34460 36064 ft 440 kts 315°
2026-05-05 00:27 15.75484 -62.39103 36067 ft 441 kts 315°
2026-05-05 00:27 15.79671 -62.43752 36060 ft 441 kts 315°
2026-05-05 00:28 15.83858 -62.48406 36058 ft 441 kts 315°
2026-05-05 00:28 15.88050 -62.53067 36063 ft 441 kts 314°
2026-05-05 00:29 15.92089 -62.57560 36062 ft 442 kts 314°
2026-05-05 00:29 15.96148 -62.62079 36063 ft 442 kts 314°
2026-05-05 00:30 16.00340 -62.66750 36064 ft 442 kts 314°
2026-05-05 00:30 16.04241 -62.71099 36066 ft 442 kts 314°
2026-05-05 00:31 16.08429 -62.75771 36067 ft 442 kts 314°
2026-05-05 00:31 16.12619 -62.80448 36061 ft 442 kts 314°
2026-05-05 00:32 16.16732 -62.85042 36060 ft 442 kts 314°
2026-05-05 00:32 16.20920 -62.89725 36064 ft 441 kts 314°
2026-05-05 00:33 16.23005 -62.92056 36065 ft 442 kts 314°
2026-05-05 00:33 16.24894 -62.94170 36063 ft 441 kts 314°
2026-05-05 00:34 16.28580 -62.98301 36063 ft 442 kts 313°
2026-05-05 00:34 16.31987 -63.03613 36071 ft 444 kts 298°
2026-05-05 00:35 16.34321 -63.08487 36062 ft 444 kts 298°
2026-05-05 00:35 16.35991 -63.12012 36065 ft 444 kts 298°
2026-05-05 00:36 16.38742 -63.17769 36065 ft 444 kts 298°
2026-05-05 00:36 16.41500 -63.23488 36063 ft 444 kts 298°
2026-05-05 00:37 16.44227 -63.29121 36067 ft 444 kts 298°
2026-05-05 00:37 16.47008 -63.34868 36064 ft 444 kts 298°
2026-05-05 00:38 16.49770 -63.40579 36060 ft 444 kts 298°
2026-05-05 00:38 16.52545 -63.46324 36066 ft 444 kts 298°
2026-05-05 00:39 16.55318 -63.52069 36064 ft 443 kts 298°
2026-05-05 00:39 16.58085 -63.57810 36066 ft 443 kts 298°
2026-05-05 00:40 16.60849 -63.63548 36060 ft 443 kts 298°
2026-05-05 00:40 16.63627 -63.69318 36064 ft 442 kts 298°
2026-05-05 00:41 16.66356 -63.74993 36067 ft 442 kts 297°
2026-05-05 00:41 16.69107 -63.80718 36065 ft 442 kts 297°
2026-05-05 00:42 16.71856 -63.86443 36062 ft 441 kts 297°
2026-05-05 00:42 16.74601 -63.92167 36065 ft 441 kts 297°
2026-05-05 00:43 16.77342 -63.97885 36065 ft 440 kts 297°
2026-05-05 00:43 16.80080 -64.03603 36060 ft 440 kts 297°
2026-05-05 00:44 16.82816 -64.09321 36067 ft 440 kts 297°
2026-05-05 00:44 16.85547 -64.15034 36067 ft 440 kts 297°
2026-05-05 00:45 16.88219 -64.20628 36065 ft 440 kts 297°
2026-05-05 00:45 16.90950 -64.26353 36068 ft 440 kts 297°
2026-05-05 00:46 16.93680 -64.32078 36065 ft 440 kts 297°
2026-05-05 00:46 16.96406 -64.37800 36062 ft 440 kts 297°
2026-05-05 00:47 16.99132 -64.43527 36069 ft 440 kts 297°
2026-05-05 00:47 17.01859 -64.49262 36068 ft 440 kts 297°
2026-05-05 00:48 17.04582 -64.54994 36063 ft 440 kts 297°
2026-05-05 00:48 17.07305 -64.60729 36067 ft 440 kts 297°
2026-05-05 00:49 17.10008 -64.66429 36064 ft 440 kts 297°
2026-05-05 00:49 17.12729 -64.72172 36064 ft 440 kts 297°
2026-05-05 00:50 17.15444 -64.77906 36065 ft 440 kts 297°
2026-05-05 00:50 17.18158 -64.83644 36062 ft 440 kts 297°
2026-05-05 00:51 17.20870 -64.89381 36063 ft 440 kts 297°
2026-05-05 00:51 17.23577 -64.95115 36063 ft 440 kts 297°
2026-05-05 00:52 17.26283 -65.00851 36070 ft 440 kts 296°
2026-05-05 00:52 17.28985 -65.06584 36062 ft 439 kts 296°
2026-05-05 00:53 17.31689 -65.12325 36066 ft 439 kts 296°
2026-05-05 00:53 17.34385 -65.18055 36065 ft 439 kts 296°
2026-05-05 00:54 17.37082 -65.23792 36069 ft 439 kts 296°
2026-05-05 00:54 17.39774 -65.29525 36068 ft 439 kts 296°
2026-05-05 00:55 17.42465 -65.35259 36067 ft 438 kts 296°
2026-05-05 00:55 17.45135 -65.40955 36070 ft 438 kts 296°
2026-05-05 00:56 17.47834 -65.46719 36069 ft 438 kts 296°
2026-05-05 00:56 17.50516 -65.52451 36073 ft 438 kts 296°
2026-05-05 00:57 17.53176 -65.58140 36072 ft 438 kts 296°
2026-05-05 00:57 17.55851 -65.63866 36074 ft 437 kts 296°
2026-05-05 00:58 17.58522 -65.69590 36074 ft 437 kts 296°
2026-05-05 00:58 17.61190 -65.75311 36068 ft 437 kts 296°
2026-05-05 00:59 17.63854 -65.81031 36067 ft 436 kts 296°
2026-05-05 00:59 17.66513 -65.86744 36073 ft 436 kts 296°
2026-05-05 01:00 17.69170 -65.92459 36076 ft 436 kts 296°
2026-05-05 01:00 17.71821 -65.98165 36075 ft 435 kts 296°
2026-05-05 01:01 17.74472 -66.03878 36076 ft 435 kts 296°
2026-05-05 01:01 17.77121 -66.09590 36072 ft 435 kts 296°
2026-05-05 01:02 17.79770 -66.15308 36073 ft 435 kts 296°
2026-05-05 01:02 17.82416 -66.21025 36073 ft 435 kts 296°
2026-05-05 01:03 17.85060 -66.26744 36071 ft 436 kts 295°
2026-05-05 01:03 17.87704 -66.32467 36080 ft 436 kts 295°
2026-05-05 01:04 17.90330 -66.38158 36086 ft 436 kts 295°
2026-05-05 01:04 17.94296 -66.46760 36083 ft 436 kts 295°
2026-05-05 01:05 17.96939 -66.52499 36094 ft 437 kts 295°
2026-05-05 01:05 17.99153 -66.57312 36059 ft 437 kts 295°
2026-05-05 01:06 18.01796 -66.63060 36055 ft 437 kts 295°
2026-05-05 01:06 18.04435 -66.68808 35404 ft 444 kts 295°
2026-05-05 01:07 18.05772 -66.71722 34807 ft 442 kts 295°
2026-05-05 01:07 18.07127 -66.74675 34129 ft 444 kts 295°
2026-05-05 01:07 18.08446 -66.77553 33596 ft 442 kts 295°
2026-05-05 01:07 18.09776 -66.80454 33060 ft 439 kts 295°
2026-05-05 01:08 18.11094 -66.83333 32569 ft 435 kts 295°
2026-05-05 01:08 18.12400 -66.86185 32075 ft 432 kts 295°
2026-05-05 01:08 18.13698 -66.89024 31624 ft 429 kts 295°
2026-05-05 01:08 18.14986 -66.91838 31128 ft 426 kts 295°
2026-05-05 01:09 18.16267 -66.94641 30642 ft 424 kts 295°
2026-05-05 01:09 18.17546 -66.97439 30158 ft 423 kts 295°
2026-05-05 01:09 18.18813 -67.00214 29619 ft 420 kts 295°
2026-05-05 01:09 18.20071 -67.02970 29104 ft 417 kts 295°
2026-05-05 01:10 18.21320 -67.05707 28593 ft 413 kts 295°
2026-05-05 01:10 18.22558 -67.08421 28119 ft 410 kts 295°
2026-05-05 01:10 18.23787 -67.11116 27644 ft 407 kts 295°
2026-05-05 01:10 18.25007 -67.13794 27167 ft 404 kts 294°
2026-05-05 01:11 18.26074 -67.16517 26656 ft 402 kts 287°
2026-05-05 01:11 18.26858 -67.19335 26071 ft 403 kts 284°
2026-05-05 01:11 18.27588 -67.22183 25530 ft 402 kts 283°
2026-05-05 01:11 18.28303 -67.25020 25114 ft 399 kts 283°
2026-05-05 01:12 18.29015 -67.27826 24697 ft 396 kts 283°
2026-05-05 01:12 18.29732 -67.30618 24245 ft 394 kts 283°
2026-05-05 01:12 18.30456 -67.33401 23771 ft 394 kts 283°
2026-05-05 01:12 18.31182 -67.36179 23258 ft 392 kts 284°
2026-05-05 01:13 18.31905 -67.38928 22849 ft 387 kts 282°
2026-05-05 01:13 18.32619 -67.41639 22487 ft 381 kts 283°
2026-05-05 01:13 18.33324 -67.44314 22069 ft 377 kts 284°
2026-05-05 01:13 18.34023 -67.46968 21604 ft 375 kts 284°
2026-05-05 01:14 18.34708 -67.49569 21180 ft 372 kts 284°
2026-05-05 01:14 18.35396 -67.52184 20806 ft 367 kts 284°
2026-05-05 01:14 18.36071 -67.54750 20416 ft 363 kts 284°
2026-05-05 01:14 18.36740 -67.57297 20045 ft 359 kts 284°
2026-05-05 01:15 18.37402 -67.59819 19617 ft 357 kts 285°
2026-05-05 01:15 18.38059 -67.62325 19279 ft 352 kts 285°
2026-05-05 01:15 18.38705 -67.64789 18984 ft 346 kts 285°
2026-05-05 01:15 18.39343 -67.67223 18574 ft 345 kts 285°
2026-05-05 01:16 18.39981 -67.69656 18112 ft 344 kts 285°
2026-05-05 01:16 18.40616 -67.72080 17657 ft 342 kts 285°
2026-05-05 01:16 18.41246 -67.74486 17175 ft 341 kts 285°
2026-05-05 01:16 18.41875 -67.76894 16708 ft 341 kts 285°
2026-05-05 01:17 18.42501 -67.79287 16261 ft 339 kts 285°
2026-05-05 01:17 18.43124 -67.81673 15774 ft 339 kts 285°
2026-05-05 01:17 18.43753 -67.84079 15272 ft 340 kts 285°
2026-05-05 01:17 18.44375 -67.86465 14959 ft 336 kts 285°
2026-05-05 01:18 18.44990 -67.88823 14590 ft 333 kts 285°
2026-05-05 01:18 18.45603 -67.91173 14193 ft 332 kts 285°
2026-05-05 01:18 18.46205 -67.93482 14093 ft 320 kts 285°
2026-05-05 01:18 18.46784 -67.95704 14013 ft 309 kts 285°
2026-05-05 01:19 18.47342 -67.97848 13924 ft 299 kts 285°
2026-05-05 01:19 18.47929 -67.99913 13760 ft 292 kts 293°
2026-05-05 01:19 18.49002 -68.01694 13560 ft 286 kts 307°
2026-05-05 01:19 18.50210 -68.03349 13285 ft 283 kts 307°
2026-05-05 01:20 18.51420 -68.04994 12932 ft 285 kts 307°
2026-05-05 01:20 18.52629 -68.06645 12615 ft 284 kts 307°
2026-05-05 01:20 18.53825 -68.08292 12339 ft 282 kts 307°
2026-05-05 01:20 18.55015 -68.09939 12054 ft 281 kts 306°
2026-05-05 01:21 18.56194 -68.11577 11749 ft 280 kts 307°
2026-05-05 01:21 18.57369 -68.13214 11458 ft 280 kts 307°
2026-05-05 01:21 18.58525 -68.14826 11175 ft 279 kts 307°
2026-05-05 01:21 18.59691 -68.16455 10898 ft 278 kts 306°
2026-05-05 01:22 18.60855 -68.18082 10619 ft 277 kts 307°
2026-05-05 01:22 18.62012 -68.19700 10360 ft 276 kts 306°
2026-05-05 01:22 18.63167 -68.21315 10061 ft 276 kts 306°
2026-05-05 01:22 18.64322 -68.22931 9794 ft 275 kts 307°
2026-05-05 01:23 18.65462 -68.24543 9505 ft 274 kts 306°
2026-05-05 01:23 18.66589 -68.26166 9158 ft 275 kts 305°
2026-05-05 01:23 18.67712 -68.27785 9008 ft 268 kts 305°
2026-05-05 01:23 18.68782 -68.29326 8920 ft 253 kts 306°
2026-05-05 01:24 18.69779 -68.30796 8804 ft 240 kts 299°
2026-05-05 01:24 18.70196 -68.32411 8685 ft 222 kts 265°
2026-05-05 01:24 18.69919 -68.33969 8476 ft 211 kts 246°
2026-05-05 01:24 18.69358 -68.35376 8216 ft 207 kts 244°
2026-05-05 01:25 18.68791 -68.36764 7912 ft 206 kts 244°
2026-05-05 01:25 18.68227 -68.38156 7592 ft 206 kts 243°
2026-05-05 01:25 18.67669 -68.39544 7295 ft 206 kts 243°
2026-05-05 01:25 18.67161 -68.40959 7001 ft 207 kts 250°
2026-05-05 01:26 18.66793 -68.42425 6729 ft 207 kts 251°
2026-05-05 01:26 18.66440 -68.43906 6412 ft 209 kts 251°
2026-05-05 01:26 18.66086 -68.45378 6146 ft 205 kts 251°
2026-05-05 01:26 18.65736 -68.46814 5903 ft 199 kts 251°
2026-05-05 01:27 18.65395 -68.48195 5544 ft 194 kts 250°
2026-05-05 01:27 18.65055 -68.49557 5225 ft 187 kts 250°
2026-05-05 01:27 18.64731 -68.50853 5007 ft 179 kts 250°
2026-05-05 01:27 18.64412 -68.52122 4839 ft 178 kts 249°
2026-05-05 01:28 18.64096 -68.53377 4659 ft 176 kts 249°
2026-05-05 01:28 18.63785 -68.54610 4480 ft 173 kts 248°
2026-05-05 01:28 18.63191 -68.55621 4287 ft 155 kts 204°
2026-05-05 01:28 18.62206 -68.55888 4271 ft 154 kts 175°
2026-05-05 01:29 18.61115 -68.55823 4049 ft 156 kts 171°
2026-05-05 01:29 18.60052 -68.55724 3857 ft 151 kts 171°
2026-05-05 01:29 18.59020 -68.55626 3687 ft 147 kts 171°
2026-05-05 01:29 18.58012 -68.55530 3564 ft 140 kts 171°
2026-05-05 01:30 18.57062 -68.55440 3378 ft 134 kts 171°
2026-05-05 01:30 18.56149 -68.55343 3225 ft 131 kts 166°
2026-05-05 01:30 18.55408 -68.54833 3077 ft 132 kts 123°
2026-05-05 01:30 18.55286 -68.53855 2953 ft 141 kts 89°
2026-05-05 01:31 18.55344 -68.52828 2849 ft 139 kts 92°
2026-05-05 01:31 18.55410 -68.51821 2693 ft 139 kts 90°
2026-05-05 01:31 18.55491 -68.50814 2513 ft 138 kts 89°
2026-05-05 01:31 18.55577 -68.49805 2332 ft 141 kts 89°
2026-05-05 01:32 18.55665 -68.48772 2141 ft 141 kts 89°
2026-05-05 01:32 18.55753 -68.47749 1957 ft 140 kts 89°
2026-05-05 01:32 18.55841 -68.46730 1773 ft 139 kts 86°
2026-05-05 01:32 18.55928 -68.45720 1588 ft 138 kts 89°
2026-05-05 01:33 18.56014 -68.44707 1392 ft 140 kts 88°
2026-05-05 01:33 18.56102 -68.43691 1210 ft 139 kts 89°
2026-05-05 01:33 18.56189 -68.42679 1007 ft 139 kts 90°
2026-05-05 01:33 18.56274 -68.41680 861 ft 136 kts 91°
2026-05-05 01:34 18.56357 -68.40690 779 ft 136 kts 86°
2026-05-05 01:34 18.56451 -68.39687 572 ft 138 kts 88°
2026-05-05 01:34 18.56525 -68.38683 400 ft 139 kts 87°
2026-05-05 01:34 18.56631 -68.37678 121 ft 134 kts 90°
2026-05-05 01:35 18.56704 -68.36797 53 ft 108 kts 89°
2026-05-05 01:35 18.56758 -68.36138 49 ft 65 kts 84°
2026-05-05 01:35 18.56783 -68.35856 50 ft 17 kts 82°
2026-05-05 01:35 18.56767 -68.35793 48 ft 7 kts 167°
2026-05-05 01:36 18.56719 -68.35789 50 ft 7 kts 178°
2026-05-05 01:36 18.56671 -68.35787 50 ft 7 kts 177°
2026-05-05 01:36 18.56625 -68.35784 51 ft 7 kts 175°
2026-05-05 01:36 18.56579 -68.35779 51 ft 7 kts 174°
2026-05-05 01:37 18.56542 -68.35785 51 ft 4 kts 203°
2026-05-05 01:37 18.56522 -68.35804 51 ft 4 kts 234°
2026-05-05 01:37 18.56514 -68.35834 51 ft 5 kts 262°
2026-05-05 01:37 18.56509 -68.35868 51 ft 5 kts 261°
2026-05-05 01:38 18.56505 -68.35906 51 ft 5 kts 263°
2026-05-05 01:38 18.56501 -68.35946 51 ft 6 kts 265°
2026-05-05 01:38 18.56498 -68.35989 51 ft 6 kts 265°
2026-05-05 01:38 18.56494 -68.36033 51 ft 6 kts 264°
2026-05-05 01:39 18.56490 -68.36078 51 ft 6 kts 264°
2026-05-05 01:39 18.56485 -68.36126 51 ft 7 kts 264°
2026-05-05 01:39 18.56480 -68.36175 50 ft 7 kts 264°
2026-05-05 01:39 18.56475 -68.36228 47 ft 7 kts 264°
2026-05-05 01:40 18.56460 -68.36278 50 ft 7 kts 215°
2026-05-05 01:40 18.56411 -68.36285 50 ft 1 kts 178°
2026-05-05 01:40 18.56410 -68.36285 50 ft 0 kts 177°
2026-05-05 01:40 18.56406 -68.36285 50 ft 1 kts 177°
2026-05-05 01:41 18.56400 -68.36284 50 ft 1 kts 177°
2026-05-05 01:41 18.56391 -68.36284 50 ft 1 kts 177°
2026-05-05 01:41 18.56390 -68.36284 50 ft 0 kts 177°
2026-05-05 01:50 18.56628 -68.37725 126 ft 135 kts 90°
2026-05-05 01:50 18.56594 -68.37237 87 ft 121 kts
2026-05-05 01:50 18.56618 -68.36969 54 ft 143 kts 63°
2026-05-05 01:50 18.56636 -68.36700 48 ft 146 kts 277°
2026-05-05 01:51 18.56684 -68.36153 50 ft 128 kts 271°
2026-05-05 01:51 18.56562 -68.37644 113 ft 143 kts 68°